• Processing (Info)

  • MPEC 2013-T73 : 2013 TK69

    The following Minor Planet Electronic Circular may be linked-to from your own Web pages, but must not otherwise be redistributed electronically.

    A form allowing access to any MPEC is at the bottom of this page.


    Read MPEC 2013-T72 Read MPEC 2013-T74


    M.P.E.C. 2013-T73                                Issued 2013 Oct. 8, 16:56 UT
    
         The Minor Planet Electronic Circulars contain information on unusual
             minor planets and routine data on comets.  They are published
       on behalf of Commission 20 of the International Astronomical Union by the
              Minor Planet Center, Smithsonian Astrophysical Observatory,
                              Cambridge, MA 02138, U.S.A.
    
                 Prepared using the Tamkin Foundation Computer Network
    
                                  MPC@CFA.HARVARD.EDU
                URL http://www.minorplanetcenter.net/    ISSN 1523-6714
    
                                       2013 TK69
    
    Observations:
         K13T69K* C2013 10 06.31660 22 51 34.431-12 42 19.99         21.8 wLET073F51
         K13T69K  C2013 10 06.33085 22 51 33.149-12 42 52.97         21.7 wLET073F51
         K13T69K  C2013 10 06.34509 22 51 31.842-12 43 26.18         21.6 wLET073F51
         K13T69K KC2013 10 07.17127 22 50 29.80 -13 15 50.8          20.5 RoET073291
         K13T69K KC2013 10 07.17676 22 50 29.31 -13 16 03.7          21.0 RoET073291
         K13T69K KC2013 10 07.18226 22 50 28.78 -13 16 17.4          21.6 RoET073291
         K13T69K KC2013 10 08.15110622 49 14.66 -13 55 22.6          21.7 VuET073H21
         K13T69K KC2013 10 08.16438122 49 13.48 -13 55 55.3          22.0 VuET073H21
         K13T69K KC2013 10 08.17712922 49 12.31 -13 56 26.7          21.8 VuET073H21
         K13T69K  C2013 10 08.22356 22 49 09.00 -13 58 17.0          21.8 RoET073926
         K13T69K  C2013 10 08.23420 22 49 08.02 -13 58 43.0          20.9 RoET073926
         K13T69K  C2013 10 08.23802 22 49 07.54 -13 58 53.6          21.0 RtET073H01
         K13T69K  C2013 10 08.24374 22 49 07.13 -13 59 06.2          21.3 RoET073926
         K13T69K  C2013 10 08.24494 22 49 06.91 -13 59 10.6          21.7 RtET073H01
         K13T69K  C2013 10 08.25462 22 49 06.04 -13 59 34.3          21.4 RtET073H01
         K13T69K  C2013 10 08.26090 22 49 05.49 -13 59 49.6          21.9 RtET073H01
    
    Observer details:
    291 LPL/Spacewatch II.  Observer R. S. McMillan.  1.8-m f/2.7 reflector + CCD.
    926 Tenagra II Observatory.  Observers M. Schwartz, P. R. Holvorcem.  0.81-m
        f/7 Ritchey-Chretien + CCD.
    F51 Pan-STARRS 1, Haleakala.  Observers N. Primak, A. Schultz. T. Goggia,
        M. Willman.  Measurer PS1 Science Consortium.  1.8-m Ritchey-Chretien
        + CCD.
    H01 Magdalena Ridge Observatory, Socorro.  Observer W. H. Ryan.  2.4-m f/8.9
        reflector + CCD.
    H21 Astronomical Research Observatory, Westfield.  Observer R. Holmes.
        Measurers R. Holmes, T. Linder, S. Foglia, L. Buzzi, T. Vorobjov.  0.81-m
        f/4.0 astrograph + CCD.
    
    Orbital elements:
    2013 TK69                                                Earth MOID = 0.0573 AU
    Epoch 2013 Nov. 4.0 TT = JDT 2456600.5                  MPC
    M 353.47755              (2000.0)            P               Q
    n   0.25311300     Peri.  254.33518     +0.33229821     -0.94315717
    a   2.4751019      Node   176.24198     +0.89522292     +0.31349680
    e   0.6205568      Incl.    4.98648     +0.29690711     +0.11033727
    P   3.89           H   23.3           G   0.15           U   6
    Residuals in seconds of arc
    131006 F51  0.3-  0.0     131008 H21  0.2+  0.0     131008 926  0.5-  0.3+
    131006 F51  0.1+  0.1+    131008 H21  0.4+  0.1-    131008 H01  0.1-  0.0
    131006 F51  0.1+  0.1-    131008 H21  0.0   0.3-    131008 H01  0.1-  0.0
    131007 291  0.1+  0.0     131008 926  0.0   0.0     131008 H01  0.1+  0.0
    131007 291  0.2+  0.3+    131008 926  0.1-  0.1+
    131007 291  0.3-  0.3-    131008 H01  0.1-  0.0
    
    Ephemeris:
    2013 TK69                a,e,i = 2.48, 0.62, 5                   q = 0.9392
    Date    TT    R. A. (2000) Decl.     Delta      r     Elong.  Phase     V
    2013 09 08    23 20 35.9 -01 13 26   0.4200  1.4260   174.2     4.1    22.6
    ...
    2013 09 23    23 07 29.9 -05 47 13   0.3025  1.2987   165.7    11.0    22.0
    ...
    2013 10 01    22 58 12.7 -09 33 44   0.2524  1.2333   154.2    20.7    21.8
    ...
    2013 10 07    22 50 42.2 -13 08 35   0.2197  1.1862   145.0    28.9    21.6
    2013 10 08    22 49 26.2 -13 48 38   0.2146  1.1785   143.4    30.4    21.6
    2013 10 09    22 48 10.3 -14 30 00   0.2096  1.1709   141.8    31.8    21.6
    ...
    2013 10 15    22 40 38.2 -19 09 31   0.1813  1.1267   132.0    41.1    21.5
    ...
    2013 10 23    22 30 36.5 -27 13 39   0.1474  1.0725   118.2    54.8    21.3
    ...
    2013 11 07    22 00 07.0 -53 46 57   0.09614 0.9909    87.1    87.3    21.3
    
    A. U. Tomatic                (C) Copyright 2013 MPC           M.P.E.C. 2013-T73
    

    Read MPEC 2013-T72 Read MPEC 2013-T74


    MPEC number:

    Enter an MPEC number in one of the following forms:

    • 1997-B01 (the full form)
    • J97B01 (the packed version of the full form)
    • B01 (the abbreviated form)